Tracking 18980 objects as of 19-Feb-2018
HD Live streaming from Space Station
objects crossing your sky now

SAUDICOMSAT 3

Track SAUDICOMSAT 3 now!
10-day predictions
SAUDICOMSAT 3 is classified as:


NORAD ID: 31125
Int'l Code: 2007-012J
Perigee: 654.3 km
Apogee: 713.8 km
Inclination: 97.9 °
Period: 98.3 minutes
Semi major axis: 7055 km
RCS: 0.082 m2 (small)
Launch date: April 17, 2007
Source: Saudi Arabia (SAUD)
Launch site: TYURATAM MISSILE AND SPACE COMPLEX (TTMTR)
aabbcc
Your satellite tracking list
Your tracking list is empty




NASA's NSSDC Master Catalog

Two Line Element Set (TLE):
1 31125U 07012J   18049.42545257 +.00000103 +00000-0 +27755-4 0  9992
2 31125 097.9057 017.0651 0042174 298.7527 060.9442 14.65064755579132
Source of the keplerian elements: AFSPC